Change the Weather History Date:

Wednesday, February 27, 2013

  Actual Average (KRHI) Record (KRHI)
Temperature  
Mean Temperature 30 °F 20 °F  
Max Temperature 32 °F 30 °F 52 °F (1932)
Min Temperature 28 °F 10 °F -26 °F (1935)
Degree Days  
Heating Degree Days 35 45  
Month to date heating degree days 1316  
Since 1 July heating degree days 6577  
Cooling Degree Days 0 0  
Month to date cooling degree days 0  
Year to date cooling degree days 0  
Moisture  
Dew Point 24 °F    
Average Humidity 79    
Maximum Humidity 86    
Minimum Humidity 69    
Precipitation  
Precipitation 0.00 in 0.04 in 0.91 in (1948)
Month to date precipitation 0.89  
Year to date precipitation 2.00  
Snow  
Snow 0.00 in - 9.50 in (1948)
Month to date snowfall  
Since 1 July snowfall  
Snow Depth -    
Sea Level Pressure  
Sea Level Pressure 29.78 in    
Wind  
Wind Speed 10 mph (North)    
Max Wind Speed 15 mph    
Max Gust Speed 23 mph    
Visibility 7 miles    
Events Snow    
T = Trace of Precipitation, MM = Missing Value Source: NWS Daily Summary

Daily Weather History Graph

Daily Weather History Graph

Search for Another Location

Airport or City:

Trip Planner

Search our weather history database for the weather conditions in past years. The results will help you decide how hot, cold, wet, or windy it might be!

Date:

Astronomy

Feb. 27, 2013 Rise Set
Actual Time 6:40 AM CST 5:43 PM CST
Civil Twilight 6:10 AM CST 6:13 PM CST
Nautical Twilight 5:36 AM CST 6:47 PM CST
Astronomical Twilight 5:02 AM CST 7:22 PM CST
Moon 8:15 PM CST (2/27) 7:07 AM CST (2/27)
Length of Visible Light 12h 02m
Length of Day
11h 03m
Waning Gibbous, 96% of the Moon is Illuminated
Feb 27
Waning Gibbous
Mar 4
Last Quarter
Mar 11
New
Mar 19
First Quarter
Mar 27
Full

Hourly Weather History & Observations

Time (CST) Temp. Windchill Dew Point Humidity Pressure Visibility Wind Dir Wind Speed Gust Speed Precip Events Conditions
12:15 AM 28.4 °F 19.7 °F 21.2 °F 74% 29.80 in 10.0 mi NE 9.2 mph 16.1 mph N/A   Overcast
12:35 AM 28.4 °F 20.4 °F 21.2 °F 74% 29.80 in 10.0 mi NNE 8.1 mph 18.4 mph N/A   Overcast
12:55 AM 28.4 °F 20.4 °F 21.2 °F 74% 29.79 in 10.0 mi NNE 8.1 mph 20.7 mph N/A   Overcast
1:15 AM 28.4 °F 21.2 °F 23.0 °F 80% 29.78 in 10.0 mi North 6.9 mph 16.1 mph N/A   Overcast
1:35 AM 28.4 °F 19.1 °F 23.0 °F 80% 29.78 in 10.0 mi North 10.4 mph 16.1 mph N/A   Overcast
1:55 AM 28.4 °F 19.7 °F 23.0 °F 80% 29.78 in 10.0 mi North 9.2 mph - N/A   Overcast
2:15 AM 28.4 °F 19.7 °F 23.0 °F 80% 29.77 in 10.0 mi North 9.2 mph 17.3 mph N/A   Overcast
2:35 AM 30.2 °F 21.3 °F 23.0 °F 75% 29.77 in 10.0 mi North 10.4 mph 18.4 mph N/A   Overcast
2:55 AM 30.2 °F 22.6 °F 23.0 °F 75% 29.76 in 10.0 mi NNE 8.1 mph 18.4 mph N/A   Overcast
3:15 AM 30.2 °F 21.3 °F 23.0 °F 75% 29.76 in 10.0 mi North 10.4 mph 19.6 mph N/A   Overcast
3:35 AM 30.2 °F 20.8 °F 23.0 °F 75% 29.76 in 10.0 mi North 11.5 mph 18.4 mph N/A   Overcast
3:55 AM 30.2 °F 21.3 °F 23.0 °F 75% 29.76 in 10.0 mi North 10.4 mph 20.7 mph N/A   Overcast
4:15 AM 30.2 °F 21.3 °F 23.0 °F 75% 29.76 in 10.0 mi North 10.4 mph 19.6 mph N/A   Overcast
4:35 AM 28.4 °F 19.1 °F 23.0 °F 80% 29.76 in 10.0 mi North 10.4 mph - N/A   Overcast
4:55 AM 28.4 °F 19.1 °F 23.0 °F 80% 29.76 in 10.0 mi North 10.4 mph 18.4 mph N/A   Overcast
5:15 AM 28.4 °F 18.0 °F 23.0 °F 80% 29.77 in 10.0 mi North 12.7 mph 19.6 mph N/A   Overcast
5:35 AM 28.4 °F 19.1 °F 23.0 °F 80% 29.76 in 10.0 mi North 10.4 mph 18.4 mph N/A   Overcast
5:55 AM 28.4 °F 19.1 °F 23.0 °F 80% 29.76 in 10.0 mi North 10.4 mph 17.3 mph N/A   Overcast
6:15 AM 28.4 °F 19.7 °F 23.0 °F 80% 29.76 in 10.0 mi North 9.2 mph 17.3 mph N/A   Overcast
6:35 AM 28.4 °F 18.5 °F 23.0 °F 80% 29.75 in 10.0 mi North 11.5 mph 17.3 mph N/A   Overcast
6:55 AM 28.4 °F 19.1 °F 23.0 °F 80% 29.75 in 10.0 mi North 10.4 mph 17.3 mph N/A   Overcast
7:15 AM 28.4 °F 20.4 °F 23.0 °F 80% 29.76 in 10.0 mi North 8.1 mph 16.1 mph N/A   Overcast
7:35 AM 28.4 °F 19.1 °F 23.0 °F 80% 29.76 in 10.0 mi North 10.4 mph - N/A   Overcast
7:55 AM 28.4 °F 20.4 °F 23.0 °F 80% 29.75 in 10.0 mi NNE 8.1 mph 17.3 mph N/A   Overcast
8:15 AM 28.4 °F 19.7 °F 23.0 °F 80% 29.75 in 1.8 mi North 9.2 mph 18.4 mph N/A Snow Light Snow
8:35 AM 28.4 °F 19.7 °F 23.0 °F 80% 29.75 in 1.5 mi North 9.2 mph - N/A Snow Light Snow
9:15 AM 28.4 °F 19.1 °F 24.8 °F 86% 29.75 in 2.5 mi North 10.4 mph - N/A Snow Light Snow
9:35 AM 28.4 °F 18.0 °F 24.8 °F 86% 29.75 in 2.0 mi North 12.7 mph 19.6 mph N/A Snow Light Snow
9:55 AM 28.4 °F 20.4 °F 24.8 °F 86% 29.75 in 1.8 mi North 8.1 mph 16.1 mph N/A Snow Light Snow
10:15 AM 30.2 °F 20.8 °F 24.8 °F 80% 29.75 in 1.8 mi North 11.5 mph 16.1 mph N/A Snow Light Snow
10:35 AM 30.2 °F 20.2 °F 24.8 °F 80% 29.75 in 1.2 mi North 12.7 mph 19.6 mph N/A Snow Light Snow
10:55 AM 30.2 °F 23.4 °F 24.8 °F 80% 29.75 in 1.8 mi North 6.9 mph 17.3 mph N/A Snow Light Snow
11:15 AM 30.2 °F 23.4 °F 24.8 °F 80% 29.75 in 1.5 mi North 6.9 mph 17.3 mph N/A Snow Light Snow
11:35 AM 30.2 °F 22.6 °F 26.6 °F 86% 29.74 in 1.0 mi NNW 8.1 mph 16.1 mph N/A Snow Light Snow
11:55 AM 30.2 °F 21.3 °F 26.6 °F 86% 29.74 in 1.8 mi North 10.4 mph - N/A Snow Light Snow
12:15 PM 30.2 °F 21.9 °F 26.6 °F 86% 29.74 in 1.8 mi North 9.2 mph - N/A Snow Light Snow
12:35 PM 30.2 °F 22.6 °F 26.6 °F 86% 29.73 in 2.0 mi North 8.1 mph - N/A Snow Light Snow
12:55 PM 32.0 °F 24.2 °F 26.6 °F 80% 29.73 in 5.0 mi North 9.2 mph 17.3 mph N/A Snow Light Snow
1:15 PM 32.0 °F 23.6 °F 26.6 °F 80% 29.73 in 7.0 mi North 10.4 mph 17.3 mph N/A Snow Light Snow
1:35 PM 32.0 °F 23.0 °F 26.6 °F 80% 29.74 in 4.0 mi North 11.5 mph 18.4 mph N/A Snow Light Snow
1:55 PM 32.0 °F 24.2 °F 26.6 °F 80% 29.74 in 3.0 mi NNE 9.2 mph 21.9 mph N/A Snow Light Snow
2:15 PM 32.0 °F 24.2 °F 26.6 °F 80% 29.74 in 2.0 mi North 9.2 mph 17.3 mph N/A Snow Light Snow
2:35 PM 32.0 °F 23.6 °F 26.6 °F 80% 29.74 in 5.0 mi North 10.4 mph 18.4 mph N/A Snow Light Snow
2:55 PM 32.0 °F 23.6 °F 26.6 °F 80% 29.75 in 10.0 mi North 10.4 mph 17.3 mph N/A   Overcast
3:15 PM 32.0 °F 23.6 °F 24.8 °F 75% 29.75 in 10.0 mi North 10.4 mph 17.3 mph N/A   Overcast
3:35 PM 32.0 °F 22.5 °F 24.8 °F 75% 29.75 in 10.0 mi North 12.7 mph 18.4 mph N/A   Overcast
3:55 PM 32.0 °F 23.6 °F 24.8 °F 75% 29.76 in 10.0 mi North 10.4 mph 19.6 mph N/A   Overcast
4:15 PM 32.0 °F 22.5 °F 24.8 °F 75% 29.76 in 10.0 mi NNE 12.7 mph 21.9 mph N/A   Overcast
4:35 PM 32.0 °F 23.0 °F 23.0 °F 69% 29.77 in 10.0 mi North 11.5 mph 20.7 mph N/A   Overcast
4:55 PM 32.0 °F 23.6 °F 23.0 °F 69% 29.77 in 7.0 mi North 10.4 mph 20.7 mph N/A   Overcast
5:15 PM 32.0 °F 21.6 °F 23.0 °F 69% 29.79 in 7.0 mi NNE 15.0 mph 23.0 mph N/A   Overcast
5:35 PM 30.2 °F 21.3 °F 24.8 °F 80% 29.79 in 2.5 mi NNE 10.4 mph 20.7 mph N/A Snow Light Snow
5:55 PM 30.2 °F 21.9 °F 26.6 °F 86% 29.80 in 4.0 mi NNE 9.2 mph 16.1 mph N/A Snow Light Snow
6:15 PM 30.2 °F 21.9 °F 26.6 °F 86% 29.81 in 5.0 mi North 9.2 mph 17.3 mph N/A Snow Light Snow
6:35 PM 30.2 °F 21.3 °F 26.6 °F 86% 29.82 in 7.0 mi North 10.4 mph - N/A Snow Light Snow
6:55 PM 30.2 °F 24.3 °F 26.6 °F 86% 29.82 in 10.0 mi North 5.8 mph - N/A   Overcast
7:15 PM 30.2 °F 24.3 °F 26.6 °F 86% 29.83 in 5.0 mi North 5.8 mph - N/A Snow Light Snow
7:35 PM 30.2 °F 22.6 °F 26.6 °F 86% 29.83 in 10.0 mi North 8.1 mph - N/A   Overcast
7:55 PM 30.2 °F 22.6 °F 24.8 °F 80% 29.83 in 10.0 mi North 8.1 mph - N/A   Overcast
8:15 PM 30.2 °F 20.2 °F 24.8 °F 80% 29.85 in 10.0 mi North 12.7 mph 17.3 mph N/A   Overcast
8:35 PM 30.2 °F 21.9 °F 23.0 °F 75% 29.85 in 10.0 mi NNE 9.2 mph 18.4 mph N/A   Overcast
8:55 PM 30.2 °F 23.4 °F 23.0 °F 75% 29.85 in 10.0 mi North 6.9 mph 17.3 mph N/A   Overcast
9:15 PM 30.2 °F 20.8 °F 23.0 °F 75% 29.86 in 10.0 mi North 11.5 mph 18.4 mph N/A   Overcast
9:35 PM 30.2 °F 20.8 °F 23.0 °F 75% 29.86 in 10.0 mi North 11.5 mph 16.1 mph N/A   Overcast
9:55 PM 30.2 °F 22.6 °F 23.0 °F 75% 29.87 in 7.0 mi North 8.1 mph - N/A Snow Light Snow
10:15 PM 30.2 °F 24.3 °F 23.0 °F 75% 29.87 in 7.0 mi North 5.8 mph - N/A Snow Light Snow
10:35 PM 30.2 °F 22.6 °F 23.0 °F 75% 29.86 in 10.0 mi North 8.1 mph - N/A   Overcast
10:55 PM 30.2 °F 22.6 °F 23.0 °F 75% 29.86 in 10.0 mi NNW 8.1 mph - N/A   Overcast
11:15 PM 30.2 °F 22.6 °F 24.8 °F 80% 29.86 in 10.0 mi North 8.1 mph - N/A   Overcast
11:35 PM 28.4 °F 20.4 °F 24.8 °F 86% 29.87 in 7.0 mi North 8.1 mph - N/A Snow Light Snow